FW2332 Weather Reports


time (UTC)temp
C
wind
direction
speed
KPH
gust
KPH
rain 1hr
cm
rain 24hr
cm
rain mn
cm
humidity
%
barometer
mb
20260505082817 12 178 1.6 0.0 0.00 0.00 0.00 92 1013.3
20260505082616 12 162 3.2 0.0 0.00 0.00 0.00 92 1013.3
20260505082416 12 182 4.8 0.0 0.00 0.00 0.00 92 1013.2
20260505081615 12 197 4.8 0.0 0.00 0.00 0.00 92 1013.2
20260505081415 12 207 4.8 0.0 0.00 0.00 0.00 92 1013.3
20260505081214 12 250 3.2 0.0 0.00 0.00 0.00 92 1013.4
20260505081014 12 184 1.6 0.0 0.00 0.00 0.00 92 1013.3
20260505080814 12 177 3.2 0.0 0.00 0.00 0.00 92 1013.2
20260505080624 12 185 3.2 0.0 0.00 0.00 0.00 92 1013.4
20260505080612 12 168 1.6 0.0 0.00 0.00 0.00 92 1013.3
20260505080211 12 187 4.8 0.0 0.00 0.00 0.00 92 1013.5
20260505080011 12 196 6.4 0.0 0.00 0.00 0.00 92 1013.2
20260505075810 12 195 3.2 0.0 0.00 0.00 0.00 92 1013.3
20260505075610 12 202 1.6 0.0 0.00 0.00 0.00 92 1013.3
20260505075410 12 209 3.2 0.0 0.00 0.00 0.00 91 1013.3
20260505075210 12 218 4.8 0.0 0.00 0.00 0.00 91 1013.3
20260505075022 12 156 1.6 0.0 0.00 0.00 0.00 91 1013.3
20260505075009 12 206 4.8 0.0 0.00 0.00 0.00 91 1013.3
20260505074608 12 155 3.2 0.0 0.00 0.00 0.00 91 1013.2
20260505074408 12 203 3.2 0.0 0.00 0.00 0.00 91 1013.1
20260505074208 12 198 3.2 0.0 0.00 0.00 0.00 91 1013.2
20260505074018 12 212 6.4 0.0 0.00 0.00 0.00 91 1013.1
20260505074008 12 200 4.8 0.0 0.00 0.00 0.00 91 1013.1
20260505073820 12 202 3.2 0.0 0.00 0.00 0.00 91 1013.2
20260505073405 12 208 3.2 0.0 0.00 0.00 0.00 91 1013.1
20260505073206 12 214 4.8 0.0 0.00 0.00 0.00 91 1013.0
20260505073018 12 160 3.2 0.0 0.00 0.00 0.00 91 1012.9
20260505073005 12 175 1.6 0.0 0.00 0.00 0.00 91 1012.9
20260505072605 12 191 4.8 0.0 0.00 0.00 0.00 91 1012.8
20260505072404 12 203 3.2 0.0 0.00 0.00 0.00 91 1012.9
20260505072203 12 189 8.0 0.0 0.00 0.00 0.00 91 1012.8
20260505072002 12 194 3.2 0.0 0.00 0.00 0.00 91 1012.8
20260505071811 12 202 4.8 0.0 0.00 0.00 0.00 90 1012.8
20260505071802 12 203 4.8 0.0 0.00 0.00 0.00 91 1012.8
20260505071411 12 188 3.2 0.0 0.00 0.00 0.00 90 1012.8
20260505071401 12 188 4.8 0.0 0.00 0.00 0.00 90 1012.7
20260505071208 12 212 3.2 0.0 0.00 0.00 0.00 90 1012.8
20260505071010 12 173 1.6 0.0 0.00 0.00 0.00 90 1012.8
20260505070558 12 175 1.6 0.0 0.00 0.00 0.00 90 1012.7
20260505070406 12 122 1.6 0.0 0.00 0.00 0.00 90 1012.8
20260505070358 12 222 1.6 0.0 0.00 0.00 0.00 90 1012.7
20260505065756 12 193 8.0 0.0 0.00 0.00 0.00 90 1012.6
20260505065556 12 181 9.7 0.0 0.00 0.00 0.00 89 1012.6
20260505065355 12 206 8.0 0.0 0.00 0.00 0.00 89 1012.7
20260505065154 12 217 3.2 0.0 0.00 0.00 0.00 89 1012.7
20260505064954 12 193 4.8 0.0 0.00 0.00 0.00 89 1012.5
20260505064804 13 218 4.8 0.0 0.00 0.00 0.00 89 1012.4
20260505064754 12 189 1.6 0.0 0.00 0.00 0.00 89 1012.6
20260505064403 13 210 1.6 0.0 0.00 0.00 0.00 88 1012.4
20260505064353 13 171 1.6 0.0 0.00 0.00 0.00 89 1012.4
20260505064206 13 194 4.8 0.0 0.00 0.00 0.00 88 1012.3
20260505064003 13 150 4.8 0.0 0.00 0.00 0.00 88 1012.3
20260505063550 13 194 4.8 0.0 0.00 0.00 0.00 88 1012.1
20260505063404 13 159 3.2 0.0 0.00 0.00 0.00 88 1012.4
20260505063350 13 172 3.2 0.0 0.00 0.00 0.00 88 1012.3
20260505062950 13 191 1.6 0.0 0.00 0.00 0.00 88 1012.3
20260505062750 13 183 1.6 0.0 0.00 0.00 0.00 88 1012.4
20260505062548 13 193 3.2 0.0 0.00 0.00 0.00 88 1012.2
20260505062349 13 180 8.0 0.0 0.00 0.00 0.00 87 1012.3
20260505062158 13 207 6.4 0.0 0.00 0.00 0.00 87 1012.2
20260505062148 13 208 9.7 0.0 0.00 0.00 0.00 87 1012.3
20260505061756 13 219 1.6 0.0 0.00 0.00 0.00 87 1012.3
20260505061748 13 177 1.6 0.0 0.00 0.00 0.00 87 1012.1
20260505061356 13 185 4.8 0.0 0.00 0.00 0.00 87 1012.1
20260505061347 13 190 1.6 0.0 0.00 0.00 0.00 87 1012.2
20260505061159 13 193 6.4 0.0 0.00 0.00 0.00 87 1012.1
20260505060746 13 187 1.6 0.0 0.00 0.00 0.00 87 1012.1
20260505060545 13 207 4.8 0.0 0.00 0.00 0.00 87 1012.0
20260505060357 13 183 3.2 0.0 0.00 0.00 0.00 87 1012.0
20260505060345 13 163 3.2 0.0 0.00 0.00 0.00 87 1012.0
20260505055945 13 145 3.2 0.0 0.00 0.00 0.00 87 1011.9
20260505055745 13 217 9.7 0.0 0.00 0.00 0.00 86 1012.0
20260505055544 13 204 1.6 0.0 0.00 0.00 0.00 86 1012.0
20260505055344 13 73 1.6 0.0 0.00 0.00 0.00 86 1011.8
20260505055144 13 158 3.2 0.0 0.00 0.00 0.00 86 1011.7
20260505054943 13 190 8.0 0.0 0.00 0.00 0.00 86 1011.8
20260505054743 13 197 3.2 0.0 0.00 0.00 0.00 86 1011.7
20260505054542 13 174 3.2 0.0 0.00 0.00 0.00 85 1011.7
20260505054342 13 179 3.2 0.0 0.00 0.00 0.00 85 1011.8
20260505054141 13 222 3.2 0.0 0.00 0.00 0.00 85 1011.6
20260505053941 14 200 0.0 0.0 0.00 0.00 0.00 85 1011.6
20260505053740 14 178 1.6 0.0 0.00 0.00 0.00 85 1011.7
20260505053541 14 185 1.6 0.0 0.00 0.00 0.00 85 1011.8
20260505053339 14 202 4.8 0.0 0.00 0.00 0.00 85 1011.8
20260505053138 14 154 1.6 0.0 0.00 0.00 0.00 85 1011.9
20260505052938 14 206 9.7 0.0 0.00 0.00 0.00 84 1011.6
20260505052738 14 212 3.2 0.0 0.00 0.00 0.00 84 1011.6
20260505052548 14 197 9.7 0.0 0.00 0.00 0.00 84 1011.7
20260505052537 14 188 3.2 0.0 0.00 0.00 0.00 84 1011.7
20260505052136 14 163 1.6 0.0 0.00 0.00 0.00 84 1011.7
20260505051735 15 177 1.6 0.0 0.00 0.00 0.00 83 1011.6
20260505051544 15 206 3.2 0.0 0.00 0.00 0.00 83 1011.7
20260505051535 15 181 0.0 0.0 0.00 0.00 0.00 83 1011.6
20260505051346 15 191 1.6 0.0 0.00 0.00 0.00 82 1011.6
20260505050934 15 195 3.2 0.0 0.00 0.00 0.00 82 1011.6
20260505050733 15 148 1.6 0.0 0.00 0.00 0.00 82 1011.7
20260505050532 15 158 1.6 0.0 0.00 0.00 0.00 81 1011.5
20260505050332 15 184 1.6 0.0 0.00 0.00 0.00 81 1011.5
20260505050131 15 177 1.6 0.0 0.00 0.00 0.00 81 1011.5
20260505041720 17 179 0.0 0.0 0.00 0.00 0.00 74 1011.2
20260505041520 17 126 3.2 0.0 0.00 0.00 0.00 74 1011.1
20260505040717 17 184 1.6 0.0 0.00 0.00 0.00 73 1010.9
20260505040531 18 180 1.6 0.0 0.00 0.00 0.00 72 1010.8
20260505040516 18 185 3.2 0.0 0.00 0.00 0.00 72 1010.9
20260505040116 18 189 1.6 0.0 0.00 0.00 0.00 72 1010.8
20260505035916 18 175 1.6 0.0 0.00 0.00 0.00 71 1010.9
20260505035515 18 186 0.0 0.0 0.00 0.00 0.00 71 1010.7
20260505035314 18 163 1.6 0.0 0.00 0.00 0.00 70 1010.8
20260505034913 18 177 3.2 0.0 0.00 0.00 0.00 69 1010.7
20260505034324 19 177 1.6 0.0 0.00 0.00 0.00 68 1010.6
20260505033911 20 222 1.6 0.0 0.00 0.00 0.00 67 1010.5
20260505033711 20 189 3.2 0.0 0.00 0.00 0.00 67 1010.5
20260505033510 20 200 1.6 0.0 0.00 0.00 0.00 66 1010.5
20260505033310 20 190 4.8 0.0 0.00 0.00 0.00 66 1010.5
20260505033110 20 208 6.4 0.0 0.00 0.00 0.00 66 1010.5
20260505032909 20 208 3.2 0.0 0.00 0.00 0.00 65 1010.5
20260505032709 20 186 0.0 0.0 0.00 0.00 0.00 66 1010.5
20260505032525 20 247 1.6 0.0 0.00 0.00 0.00 65 1010.5
20260505032307 20 210 1.6 0.0 0.00 0.00 0.00 65 1010.5
20260505032119 21 206 1.6 0.0 0.00 0.00 0.00 64 1010.3
20260505032107 20 207 1.6 0.0 0.00 0.00 0.00 65 1010.5
20260505031706 21 185 6.4 0.0 0.00 0.00 0.00 64 1010.3
20260505031305 21 188 4.8 0.0 0.00 0.00 0.00 63 1010.3
20260505031104 21 185 1.6 0.0 0.00 0.00 0.00 63 1010.1
20260505030917 21 169 3.2 0.0 0.00 0.00 0.00 62 1010.2
20260505030503 21 191 1.6 0.0 0.00 0.00 0.00 61 1010.2
20260505030302 21 131 3.2 0.0 0.00 0.00 0.00 62 1010.2
20260505025902 21 208 1.6 0.0 0.00 0.00 0.00 60 1010.1
20260505025701 22 187 1.6 0.0 0.00 0.00 0.00 60 1010.2
20260505025501 22 192 3.2 0.0 0.00 0.00 0.00 59 1010.0
20260505025301 22 188 1.6 0.0 0.00 0.00 0.00 59 1010.0
20260505025100 22 193 3.2 0.0 0.00 0.00 0.00 58 1010.0
20260505024913 22 198 3.2 0.0 0.00 0.00 0.00 57 1010.0
20260505024900 22 198 3.2 0.0 0.00 0.00 0.00 58 1010.0
20260505024058 22 254 1.6 0.0 0.00 0.00 0.00 56 1010.0
20260505023858 23 4 1.6 0.0 0.00 0.00 0.00 54 1010.0
20260505023658 23 220 1.6 0.0 0.00 0.00 0.00 55 1009.9
20260505023310 23 197 0.0 0.0 0.00 0.00 0.00 54 1010.0
20260505023257 23 350 1.6 0.0 0.00 0.00 0.00 55 1010.0
20260505022855 23 343 4.8 0.0 0.00 0.00 0.00 54 1009.9
20260505022654 23 354 1.6 0.0 0.00 0.00 0.00 54 1009.8
20260505022454 23 325 1.6 0.0 0.00 0.00 0.00 55 1009.9
20260505022252 23 196 1.6 0.0 0.00 0.00 0.00 53 1009.9
20260505022053 23 359 0.0 0.0 0.00 0.00 0.00 53 1009.8
20260505021851 23 209 1.6 0.0 0.00 0.00 0.00 53 1010.0
20260505021651 23 298 0.0 0.0 0.00 0.00 0.00 53 1009.9
20260505021451 23 209 1.6 0.0 0.00 0.00 0.00 54 1009.9
20260505021050 23 190 1.6 0.0 0.00 0.00 0.00 53 1009.9
20260505020850 23 209 1.6 0.0 0.00 0.00 0.00 52 1009.8
20260505020704 24 188 1.6 0.0 0.00 0.00 0.00 51 1009.7
20260505020049 24 235 1.6 0.0 0.00 0.00 0.00 50 1009.7
20260505015849 24 208 1.6 0.0 0.00 0.00 0.00 50 1009.7
20260505015259 24 277 0.0 0.0 0.00 0.00 0.00 51 1009.6
20260505014846 24 196 1.6 0.0 0.00 0.00 0.00 51 1009.6
20260505014646 24 235 1.6 0.0 0.00 0.00 0.00 50 1009.7
20260505014245 24 208 4.8 0.0 0.00 0.00 0.00 51 1009.7
20260505014057 25 192 4.8 0.0 0.00 0.00 0.00 50 1009.6
20260505014045 24 162 1.6 0.0 0.00 0.00 0.00 50 1009.6
20260505013657 25 207 3.2 0.0 0.00 0.00 0.00 49 1009.6
20260505013643 25 180 3.2 0.0 0.00 0.00 0.00 49 1009.6
20260505013256 25 181 1.6 0.0 0.00 0.00 0.00 48 1009.7
20260505013243 25 172 8.0 0.0 0.00 0.00 0.00 48 1009.6
20260505012841 25 190 6.4 0.0 0.00 0.00 0.00 47 1009.6
20260505012652 25 206 3.2 0.0 0.00 0.00 0.00 48 1009.6
20260505012641 25 153 3.2 0.0 0.00 0.00 0.00 47 1009.6
20260505012240 25 201 6.4 0.0 0.00 0.00 0.00 47 1009.6
20260505012039 25 206 4.8 0.0 0.00 0.00 0.00 48 1009.6
20260505011638 25 190 3.2 0.0 0.00 0.00 0.00 48 1009.7
20260505011438 25 162 1.6 0.0 0.00 0.00 0.00 47 1009.5
20260505011237 25 192 1.6 0.0 0.00 0.00 0.00 47 1009.7
20260505011037 25 205 3.2 0.0 0.00 0.00 0.00 48 1009.7
20260505010837 25 247 3.2 0.0 0.00 0.00 0.00 47 1009.7
20260505010649 25 226 4.8 0.0 0.00 0.00 0.00 49 1009.7
20260505010236 25 219 1.6 0.0 0.00 0.00 0.00 48 1009.7
20260505010036 25 178 4.8 0.0 0.00 0.00 0.00 49 1009.9
20260505005834 25 195 1.6 0.0 0.00 0.00 0.00 47 1009.9
20260505005634 25 171 6.4 0.0 0.00 0.00 0.00 46 1009.9
20260505005447 25 299 4.8 0.0 0.00 0.00 0.00 48 1009.8
20260505005434 25 247 1.6 0.0 0.00 0.00 0.00 46 1009.9
20260505004834 25 171 3.2 0.0 0.00 0.00 0.00 49 1009.8
20260505004646 25 178 0.0 0.0 0.00 0.00 0.00 49 1009.8
20260505004633 25 201 3.2 0.0 0.00 0.00 0.00 50 1009.8
20260505004443 25 192 6.4 0.0 0.00 0.00 0.00 49 1009.8
20260505004032 25 187 1.6 0.0 0.00 0.00 0.00 49 1009.8
20260505003845 25 114 1.6 0.0 0.00 0.00 0.00 48 1009.9
20260505003831 25 196 1.6 0.0 0.00 0.00 0.00 49 1009.7
20260505003030 26 173 1.6 0.0 0.00 0.00 0.00 48 1009.7
20260505002830 26 192 0.0 0.0 0.00 0.00 0.00 48 1009.7
20260505002630 26 193 1.6 0.0 0.00 0.00 0.00 47 1009.7
20260505002429 26 150 0.0 0.0 0.00 0.00 0.00 46 1009.7
20260505002029 26 147 4.8 0.0 0.00 0.00 0.00 46 1009.7
20260505001838 26 152 1.6 0.0 0.00 0.00 0.00 47 1009.7
20260505001646 26 224 1.6 0.0 0.00 0.00 0.00 45 1009.9
20260505001447 26 183 1.6 0.0 0.00 0.00 0.00 47 1009.7
20260505001252 26 188 1.6 0.0 0.00 0.00 0.00 46 1009.8
20260505001108 26 232 1.6 0.0 0.00 0.00 0.00 47 1009.8
20260505001053 26 95 1.6 0.0 0.00 0.00 0.00 45 1009.7
20260505000625 26 125 1.6 0.0 0.00 0.00 0.00 47 1009.9
20260505000425 26 196 4.8 0.0 0.00 0.00 0.00 46 1009.9
20260505000024 26 188 1.6 0.0 0.00 0.00 0.00 45 1010.0
20260504235823 26 175 9.7 0.0 0.00 0.00 0.00 44 1009.8
20260504235623 26 177 1.6 0.0 0.00 0.00 0.00 45 1009.7
20260504235433 26 141 4.8 0.0 0.00 0.00 0.00 44 1009.8
20260504235422 26 215 3.2 0.0 0.00 0.00 0.00 45 1009.7
20260504235230 27 207 3.2 0.0 0.00 0.00 0.00 45 1009.7
20260504234830 27 258 0.0 0.0 0.00 0.00 0.00 44 1009.8
20260504234420 27 130 3.2 0.0 0.00 0.00 0.00 42 1009.7
20260504234219 27 97 1.6 0.0 0.00 0.00 0.00 44 1009.7
20260504234020 27 176 1.6 0.0 0.00 0.00 0.00 42 1009.7
20260504233818 27 101 1.6 0.0 0.00 0.00 0.00 43 1009.7
20260504233618 27 193 6.4 0.0 0.00 0.00 0.00 41 1009.7
20260504233417 27 188 3.2 0.0 0.00 0.00 0.00 42 1009.8
20260504233216 28 213 6.4 0.0 0.00 0.00 0.00 41 1009.8
20260504232815 28 203 4.8 0.0 0.00 0.00 0.00 39 1009.7
20260504232615 29 214 3.2 0.0 0.00 0.00 0.00 37 1009.8
20260504232414 29 220 3.2 0.0 0.00 0.00 0.00 38 1009.7
20260504232213 29 237 1.6 0.0 0.00 0.00 0.00 39 1009.6
20260504231813 29 39 3.2 0.0 0.00 0.00 0.00 40 1009.7
20260504231411 28 316 1.6 0.0 0.00 0.00 0.00 40 1009.8
20260504231212 28 241 3.2 0.0 0.00 0.00 0.00 43 1009.9
20260504231011 28 181 8.0 0.0 0.00 0.00 0.00 42 1009.9
20260504230811 28 219 4.8 0.0 0.00 0.00 0.00 42 1009.8
20260504230611 28 205 4.8 0.0 0.00 0.00 0.00 42 1009.8
20260504230411 28 167 8.0 0.0 0.00 0.00 0.00 40 1009.9
20260504230210 28 183 1.6 0.0 0.00 0.00 0.00 39 1009.9
20260504230010 29 239 1.6 0.0 0.00 0.00 0.00 39 1009.9
20260504225808 28 342 4.8 0.0 0.00 0.00 0.00 41 1010.0
20260504225607 28 325 3.2 0.0 0.00 0.00 0.00 41 1010.1
20260504225207 28 221 1.6 0.0 0.00 0.00 0.00 41 1010.0
20260504224807 28 193 4.8 0.0 0.00 0.00 0.00 41 1010.1
20260504224606 28 196 11.3 0.0 0.00 0.00 0.00 42 1010.1
20260504224405 27 346 1.6 0.0 0.00 0.00 0.00 43 1010.1
20260504224205 27 239 3.2 0.0 0.00 0.00 0.00 43 1010.2
20260504223804 28 208 6.4 0.0 0.00 0.00 0.00 42 1010.1
20260504223603 27 181 3.2 0.0 0.00 0.00 0.00 42 1010.3
20260504223403 28 181 4.8 0.0 0.00 0.00 0.00 40 1010.2
20260504223202 28 134 1.6 0.0 0.00 0.00 0.00 40 1010.3
20260504223002 28 252 1.6 0.0 0.00 0.00 0.00 40 1010.2
20260504222802 28 189 4.8 0.0 0.00 0.00 0.00 41 1010.4
20260504222600 28 206 3.2 0.0 0.00 0.00 0.00 40 1010.4
20260504222400 29 223 6.4 0.0 0.00 0.00 0.00 40 1010.4
20260504222200 28 252 1.6 0.0 0.00 0.00 0.00 40 1010.4
20260504221759 27 178 6.4 0.0 0.00 0.00 0.00 43 1010.4
20260504221559 27 218 4.8 0.0 0.00 0.00 0.00 42 1010.4
20260504221411 27 173 4.8 0.0 0.00 0.00 0.00 42 1010.6
20260504221359 27 204 1.6 0.0 0.00 0.00 0.00 41 1010.5
20260504220958 28 157 4.8 0.0 0.00 0.00 0.00 40 1010.5
20260504220808 30 200 6.4 0.0 0.00 0.00 0.00 37 1010.4
20260504220358 30 212 4.8 0.0 0.00 0.00 0.00 38 1010.5
20260504220157 30 110 1.6 0.0 0.00 0.00 0.00 39 1010.5
20260504215957 28 35 4.8 0.0 0.00 0.00 0.00 41 1010.6
20260504215757 28 207 4.8 0.0 0.00 0.00 0.00 41 1010.5
20260504215555 28 204 1.6 0.0 0.00 0.00 0.00 42 1010.6
20260504215355 28 195 1.6 0.0 0.00 0.00 0.00 44 1010.6
20260504215154 28 239 4.8 0.0 0.00 0.00 0.00 42 1010.6
20260504215002 27 199 1.6 0.0 0.00 0.00 0.00 43 1010.7
20260504214953 28 156 0.0 0.0 0.00 0.00 0.00 41 1010.6
20260504214552 27 141 1.6 0.0 0.00 0.00 0.00 44 1010.8
20260504214352 27 195 3.2 0.0 0.00 0.00 0.00 45 1010.8
20260504214151 27 144 0.0 0.0 0.00 0.00 0.00 46 1010.8
20260504214004 27 184 4.8 0.0 0.00 0.00 0.00 43 1010.8
20260504213951 27 114 1.6 0.0 0.00 0.00 0.00 44 1010.8
20260504213800 27 199 8.0 0.0 0.00 0.00 0.00 45 1010.8
20260504213350 27 123 1.6 0.0 0.00 0.00 0.00 45 1010.8
20260504213150 27 199 8.0 0.0 0.00 0.00 0.00 45 1010.9
20260504212948 27 144 1.6 0.0 0.00 0.00 0.00 46 1010.9
20260504212748 27 173 3.2 0.0 0.00 0.00 0.00 44 1010.9
20260504212559 26 160 1.6 0.0 0.00 0.00 0.00 47 1010.9
20260504212401 26 177 1.6 0.0 0.00 0.00 0.00 45 1011.0
20260504211947 27 199 0.0 0.0 0.00 0.00 0.00 46 1010.8
20260504211746 27 180 3.2 0.0 0.00 0.00 0.00 45 1010.8
20260504211546 26 193 4.8 0.0 0.00 0.00 0.00 48 1010.8
20260504211346 26 137 1.6 0.0 0.00 0.00 0.00 47 1010.8
20260504211145 27 170 1.6 0.0 0.00 0.00 0.00 45 1010.8
20260504210956 26 225 3.2 0.0 0.00 0.00 0.00 44 1010.8
20260504210944 26 68 1.6 0.0 0.00 0.00 0.00 47 1010.8
20260504210555 26 148 0.0 0.0 0.00 0.00 0.00 49 1010.9
20260504210143 26 185 3.2 0.0 0.00 0.00 0.00 50 1010.9
20260504205942 26 90 1.6 0.0 0.00 0.00 0.00 50 1011.0
20260504205741 26 208 4.8 0.0 0.00 0.00 0.00 49 1011.1
20260504205540 26 145 3.2 0.0 0.00 0.00 0.00 49 1011.1
20260504205139 25 176 0.0 0.0 0.00 0.00 0.00 50 1011.1
20260504204938 26 196 8.0 0.0 0.00 0.00 0.00 49 1011.1
20260504204737 26 231 4.8 0.0 0.00 0.00 0.00 53 1011.2
20260504204536 26 133 3.2 0.0 0.00 0.00 0.00 51 1011.0
20260504204335 26 197 6.4 0.0 0.00 0.00 0.00 49 1011.1
20260504204135 25 146 3.2 0.0 0.00 0.00 0.00 51 1011.2
20260504203935 25 175 1.6 0.0 0.00 0.00 0.00 51 1011.2
20260504203734 25 125 1.6 0.0 0.00 0.00 0.00 52 1011.0
20260504203534 25 194 4.8 0.0 0.00 0.00 0.00 52 1011.1
20260504203334 25 210 6.4 0.0 0.00 0.00 0.00 53 1011.1
20260504203134 25 147 0.0 0.0 0.00 0.00 0.00 51 1011.0
20260504202934 25 180 3.2 0.0 0.00 0.00 0.00 52 1011.2
20260504202747 25 123 1.6 0.0 0.00 0.00 0.00 52 1011.2
20260504202333 24 199 4.8 0.0 0.00 0.00 0.00 53 1011.0
20260504202132 25 199 11.3 0.0 0.00 0.00 0.00 51 1011.1
20260504201931 24 212 0.0 0.0 0.00 0.00 0.00 54 1011.1
20260504201731 24 167 3.2 0.0 0.00 0.00 0.00 53 1011.1
20260504201531 24 166 4.8 0.0 0.00 0.00 0.00 52 1011.1
20260504201331 25 171 6.4 0.0 0.00 0.00 0.00 52 1011.0
20260504201130 25 218 3.2 0.0 0.00 0.00 0.00 52 1010.9
20260504200930 25 184 4.8 0.0 0.00 0.00 0.00 51 1010.9
20260504200729 25 134 1.6 0.0 0.00 0.00 0.00 52 1010.9
20260504200541 25 212 3.2 0.0 0.00 0.00 0.00 52 1010.9
20260504200530 25 182 1.6 0.0 0.00 0.00 0.00 52 1010.9
20260504200129 25 151 1.6 0.0 0.00 0.00 0.00 52 1010.9
20260504195928 25 153 1.6 0.0 0.00 0.00 0.00 52 1010.9
20260504195527 24 170 1.6 0.0 0.00 0.00 0.00 53 1011.1
20260504195326 24 190 6.4 0.0 0.00 0.00 0.00 53 1011.2
20260504195127 24 172 0.0 0.0 0.00 0.00 0.00 54 1011.1
20260504194927 23 225 4.8 0.0 0.00 0.00 0.00 56 1011.1
20260504194726 23 139 1.6 0.0 0.00 0.00 0.00 54 1011.0
20260504194526 24 186 3.2 0.0 0.00 0.00 0.00 53 1011.0
20260504194123 24 208 9.7 0.0 0.00 0.00 0.00 54 1011.0
20260504193923 24 202 3.2 0.0 0.00 0.00 0.00 53 1011.0
20260504193522 24 151 1.6 0.0 0.00 0.00 0.00 54 1011.2
20260504193322 24 156 3.2 0.0 0.00 0.00 0.00 55 1011.2
20260504193120 23 195 4.8 0.0 0.00 0.00 0.00 54 1011.2
20260504192920 23 193 8.0 0.0 0.00 0.00 0.00 55 1011.2
20260504192733 23 206 3.2 0.0 0.00 0.00 0.00 55 1011.3
20260504192319 23 198 9.7 0.0 0.00 0.00 0.00 53 1011.3
20260504192128 23 182 4.8 0.0 0.00 0.00 0.00 55 1011.6
20260504192118 23 201 6.4 0.0 0.00 0.00 0.00 57 1011.3
20260504191728 23 223 9.7 0.0 0.00 0.00 0.00 55 1011.3
20260504191328 22 168 1.6 0.0 0.00 0.00 0.00 56 1011.5
20260504191317 23 193 3.2 0.0 0.00 0.00 0.00 55 1011.4
20260504190927 22 252 1.6 0.0 0.00 0.00 0.00 59 1011.5
20260504190915 22 197 6.4 0.0 0.00 0.00 0.00 56 1011.6
20260504190526 22 127 1.6 0.0 0.00 0.00 0.00 57 1011.6
20260504190513 22 143 1.6 0.0 0.00 0.00 0.00 57 1011.6
20260504190113 22 155 3.2 0.0 0.00 0.00 0.00 59 1011.6
20260504185912 22 180 1.6 0.0 0.00 0.00 0.00 56 1011.7
20260504185713 22 154 1.6 0.0 0.00 0.00 0.00 55 1011.6
20260504185522 23 183 3.2 0.0 0.00 0.00 0.00 55 1011.6
20260504185512 22 235 3.2 0.0 0.00 0.00 0.00 55 1011.5
20260504185110 23 114 1.6 0.0 0.00 0.00 0.00 56 1011.5
20260504184910 23 237 6.4 0.0 0.00 0.00 0.00 54 1011.5
20260504184709 22 229 4.8 0.0 0.00 0.00 0.00 56 1011.6
20260504184518 22 202 6.4 0.0 0.00 0.00 0.00 54 1011.5
20260504184508 22 184 8.0 0.0 0.00 0.00 0.00 56 1011.6
20260504184108 22 201 3.2 0.0 0.00 0.00 0.00 55 1011.7
20260504183919 22 179 6.4 0.0 0.00 0.00 0.00 55 1011.6
20260504183908 22 197 3.2 0.0 0.00 0.00 0.00 56 1011.6
20260504183506 22 164 1.6 0.0 0.00 0.00 0.00 55 1011.6
20260504183306 21 200 3.2 0.0 0.00 0.00 0.00 56 1011.6
20260504183118 22 136 0.0 0.0 0.00 0.00 0.00 55 1011.6
20260504183105 22 200 6.4 0.0 0.00 0.00 0.00 55 1011.6
20260504182718 22 186 1.6 0.0 0.00 0.00 0.00 57 1011.6
20260504182705 22 184 1.6 0.0 0.00 0.00 0.00 54 1011.6
20260504182515 22 167 4.8 0.0 0.00 0.00 0.00 55 1011.5
20260504182114 22 214 6.4 0.0 0.00 0.00 0.00 55 1011.6
20260504182103 22 196 9.7 0.0 0.00 0.00 0.00 54 1011.6
20260504181702 22 126 1.6 0.0 0.00 0.00 0.00 54 1011.6
20260504181501 22 153 1.6 0.0 0.00 0.00 0.00 55 1011.8
20260504181302 22 173 6.4 0.0 0.00 0.00 0.00 55 1011.7
20260504181102 22 184 3.2 0.0 0.00 0.00 0.00 55 1011.7
20260504180902 22 198 4.8 0.0 0.00 0.00 0.00 54 1011.7
20260504180700 22 192 1.6 0.0 0.00 0.00 0.00 57 1011.7
20260504180511 21 171 1.6 0.0 0.00 0.00 0.00 56 1011.7
20260504180501 21 156 1.6 0.0 0.00 0.00 0.00 55 1011.7
20260504180111 21 169 6.4 0.0 0.00 0.00 0.00 54 1011.6
20260504180059 21 198 1.6 0.0 0.00 0.00 0.00 54 1011.7
20260504175907 21 153 3.2 0.0 0.00 0.00 0.00 53 1011.7
20260504175457 21 179 3.2 0.0 0.00 0.00 0.00 54 1011.7
20260504175257 21 204 1.6 0.0 0.00 0.00 0.00 56 1011.8
20260504174855 21 184 3.2 0.0 0.00 0.00 0.00 55 1011.8
20260504174655 21 121 1.6 0.0 0.00 0.00 0.00 56 1011.7
20260504174254 21 209 3.2 0.0 0.00 0.00 0.00 56 1011.7
20260504174055 21 183 1.6 0.0 0.00 0.00 0.00 58 1011.7
20260504173854 20 167 1.6 0.0 0.00 0.00 0.00 57 1011.7
20260504173655 20 190 1.6 0.0 0.00 0.00 0.00 56 1011.8
20260504173454 20 205 6.4 0.0 0.00 0.00 0.00 56 1011.8
20260504173306 20 220 1.6 0.0 0.00 0.00 0.00 58 1011.9
20260504173253 20 216 4.8 0.0 0.00 0.00 0.00 57 1011.9
20260504172651 20 175 3.2 0.0 0.00 0.00 0.00 57 1011.9
20260504172505 20 152 0.0 0.0 0.00 0.00 0.00 57 1011.8
20260504172451 20 187 1.6 0.0 0.00 0.00 0.00 55 1011.8
20260504172303 20 190 4.8 0.0 0.00 0.00 0.00 55 1011.8
20260504171649 20 171 1.6 0.0 0.00 0.00 0.00 56 1011.8
20260504171248 20 124 0.0 0.0 0.00 0.00 0.00 55 1011.9
20260504171047 20 126 0.0 0.0 0.00 0.00 0.00 55 1011.8
20260504170847 20 169 3.2 0.0 0.00 0.00 0.00 55 1011.7
20260504170646 19 165 1.6 0.0 0.00 0.00 0.00 55 1011.7
20260504170446 19 193 4.8 0.0 0.00 0.00 0.00 55 1011.7
20260504170259 19 193 4.8 0.0 0.00 0.00 0.00 54 1011.7
20260504170245 19 216 6.4 0.0 0.00 0.00 0.00 56 1011.6
20260504160435 17 193 3.2 0.0 0.00 0.00 0.00 62 1011.4
20260504160234 17 179 1.6 0.0 0.00 0.00 0.00 64 1011.5
20260504151023 14 187 1.6 0.0 0.00 0.00 0.00 81 1011.2
20260504141004 11 201 1.6 0.0 0.00 0.00 0.00 84 1010.7
20260504130545 11 236 0.0 0.0 0.00 0.00 0.00 81 1010.7
20260504120128 11 203 1.6 0.0 0.00 0.00 0.00 82 1010.4
20260504110512 12 354 1.6 0.0 0.00 0.00 0.00 78 1010.5
20260504110323 12 357 1.6 0.0 0.00 0.00 0.00 77 1010.3
20260504110312 12 357 1.6 0.0 0.00 0.00 0.00 78 1010.4
20260504100454 12 343 1.6 0.0 0.00 0.00 0.00 72 1010.3
20260504100253 12 342 0.0 0.0 0.00 0.00 0.00 71 1010.3